Weather History for KFWN - November, 2011

Change the Weather History Date:

Saturday, November 5, 2011

  Actual Average Record
Temperature  
Mean Temperature 37 °F -  
Max Temperature 50 °F 56 °F 79 °F (1990)
Min Temperature 24 °F 33 °F 20 °F (1983)
Degree Days  
Heating Degree Days 28    
Moisture  
Dew Point 24 °F    
Average Humidity 69    
Maximum Humidity 91    
Minimum Humidity 33    
Precipitation  
Precipitation 0.00 in - - ()
Sea Level Pressure  
Sea Level Pressure 30.42 in    
Wind  
Wind Speed 1 mph (East)    
Max Wind Speed 7 mph    
Max Gust Speed -    
Visibility 10 miles    
Events      
Averages and records for this station are not official NWS values.
T = Trace of Precipitation, MM = Missing Value Source: NWS Daily Summary

Daily Weather History Graph

Daily Weather History Graph

Search for Another Location

Airport or City:

Trip Planner

Search our weather history database for the weather conditions in past years. The results will help you decide how hot, cold, wet, or windy it might be!

Date:

Astronomy

Nov. 05, 2011 Rise Set
Actual Time 7:34 AM EDT 5:49 PM EDT
Civil Twilight 7:05 AM EDT 6:18 PM EDT
Nautical Twilight 6:32 AM EDT 6:51 PM EDT
Astronomical Twilight 6:00 AM EDT 7:23 PM EDT
Moon 3:08 PM EDT (11/5) 2:38 AM EDT (11/5)
Length of Visible Light 11h 13m
Length of Day
10h 15m
Waxing Gibbous, 78% of the Moon is Illuminated
Nov 5
Waxing Gibbous
Nov 10
Full
Nov 18
Last Quarter
Nov 25
New
Dec 2
First Quarter

Hourly Weather History & Observations

Time (EDT) Temp. Windchill Dew Point Humidity Pressure Visibility Wind Dir Wind Speed Gust Speed Precip Events Conditions
12:53 AM 32.0 °F - 24.1 °F 73% 30.31 in 10.0 mi Calm Calm - N/A   Clear
1:53 AM 28.0 °F - 23.0 °F 81% 30.32 in 10.0 mi Calm Calm - N/A   Clear
2:53 AM 28.9 °F - 24.1 °F 82% 30.33 in 10.0 mi Calm Calm - N/A   Clear
3:53 AM 27.0 °F - 23.0 °F 85% 30.34 in 10.0 mi Calm Calm - N/A   Clear
4:53 AM 26.1 °F - 23.0 °F 88% 30.35 in 10.0 mi Calm Calm - N/A   Clear
5:53 AM 26.1 °F - 23.0 °F 88% 30.38 in 10.0 mi Calm Calm - N/A   Clear
6:53 AM 24.1 °F - 21.9 °F 91% 30.40 in 10.0 mi Calm Calm - N/A   Clear
8:53 AM 28.9 °F - 26.1 °F 89% 30.45 in 10.0 mi Calm Calm - N/A   Clear
9:53 AM 35.1 °F - 27.0 °F 72% 30.47 in 10.0 mi Calm Calm - N/A   Clear
11:53 AM 43.0 °F 38.8 °F 25.0 °F 49% 30.48 in 10.0 mi NE 6.9 mph - N/A   Clear
12:53 PM 46.0 °F 43.9 °F 25.0 °F 44% 30.47 in 10.0 mi East 4.6 mph - N/A   Clear
1:53 PM 46.9 °F - 25.0 °F 42% 30.46 in 10.0 mi Variable 4.6 mph - N/A   Clear
3:53 PM 50.0 °F - 21.9 °F 33% 30.45 in 10.0 mi Variable 3.5 mph - N/A   Clear
4:53 PM 48.9 °F - 23.0 °F 36% 30.45 in 10.0 mi ESE 3.5 mph - N/A   Clear
5:53 PM 43.0 °F - 25.0 °F 49% 30.45 in 10.0 mi Calm Calm - N/A   Clear
6:53 PM 37.0 °F - 25.0 °F 62% 30.46 in 10.0 mi Calm Calm - N/A   Clear
7:53 PM 35.1 °F - 26.1 °F 70% 30.47 in 10.0 mi Calm Calm - N/A   Clear
9:53 PM 30.0 °F - 26.1 °F 85% 30.48 in 10.0 mi Calm Calm - N/A   Clear
10:53 PM 28.0 °F - 25.0 °F 88% 30.49 in 10.0 mi Calm Calm - N/A   Clear